EHI
0 0 0 0 0 0 0 0 0 1 0 1 4 9 11 12 15 18 19 18 19 20 20 19 23 29 33 38 42 46 47 40 31 27 25 24 24 24 24 26 26 24 22 21
0 0 0 0 0 0 0 0 1 1 1 2 7 11 12 13 15 18 18 18 19 22 22 21 24 29 34 39 43 46 45 39 31 28 27 27 27 26 25 25 25 23 21 20
0 0 0 0 0 0 0 1 1 1 2 6 12 15 15 14 16 18 18 17 18 20 22 23 25 29 33 38 41 43 42 37 32 31 31 32 32 30 27 26 25 21 18 17
0 0 0 0 0 0 0 1 1 2 6 12 17 18 16 14 16 19 19 17 16 18 20 22 25 28 31 34 35 36 36 34 33 32 32 31 32 31 28 26 23 19 16 15
0 0 0 0 0 0 0 0 2 6 11 15 18 17 13 11 13 16 18 18 20 21 22 23 26 29 30 30 28 28 29 29 30 31 30 28 27 25 24 22 19 17 16 15
0 0 0 0 1 1 0 0 2 7 11 13 14 12 9 8 10 13 17 22 26 27 27 27 28 29 29 27 25 24 25 25 26 28 29 27 23 20 18 17 16 15 14 14
0 0 0 1 2 1 0 0 2 5 7 7 7 8 9 10 11 13 17 23 27 29 29 29 29 28 28 29 27 27 27 26 25 26 26 26 22 17 15 14 12 12 12 10
0 0 0 1 2 2 2 3 3 4 4 4 5 8 12 16 17 17 19 21 24 26 27 27 27 27 29 29 29 30 29 26 24 23 22 22 20 16 14 13 11 11 10 8
3 3 3 3 3 3 5 7 7 6 6 8 10 12 17 20 20 19 19 19 19 21 22 22 24 25 27 27 27 28 27 23 20 18 18 18 17 14 13 12 12 11 10 8
7 7 7 5 3 3 6 9 10 9 10 13 15 17 18 19 18 18 17 17 16 17 17 19 21 23 23 23 23 24 22 19 17 15 14 14 13 12 11 11 12 11 9 8
6 6 6 5 3 2 4 6 8 10 12 15 16 16 16 14 13 15 16 16 16 15 15 16 19 21 21 20 21 21 20 18 16 14 14 13 10 8 8 8 8 8 7 6
3 2 2 2 2 2 3 4 6 9 12 13 13 14 13 12 12 14 16 16 15 14 14 15 17 19 19 20 21 21 19 17 16 15 14 12 8 5 4 3 3 3 3 3
1 0 0 1 1 0 2 4 6 8 11 11 10 12 12 11 12 14 16 15 14 13 14 15 15 16 17 18 18 19 17 16 15 13 11 9 6 3 1 1 0 0 1 1
0 0 0 0 0 0 1 3 5 7 10 11 10 11 11 10 10 12 14 14 13 14 14 16 15 14 15 15 15 15 15 14 12 9 7 6 4 2 0 0 0 0 0 0
0 0 0 0 0 0 1 3 4 5 8 9 10 10 9 8 8 9 11 13 14 15 16 16 15 14 15 15 15 14 13 11 9 6 4 3 2 1 0 0 0 0 0 0
0 0 0 0 0 1 2 3 3 4 5 5 6 7 7 6 6 7 8 11 12 13 14 14 15 15 15 15 14 13 11 9 7 4 3 3 1 0 0 0 0 0 0 0
0 0 0 0 0 1 3 3 3 3 3 2 3 3 4 5 6 5 6 7 8 7 9 11 13 13 13 12 11 9 8 6 4 3 3 3 2 1 0 0 0 0 0 0
0 0 0 0 1 2 3 3 2 2 2 1 1 1 2 3 4 4 4 4 4 3 4 6 8 9 9 7 6 6 6 4 3 3 3 3 2 1 0 0 0 0 0 0
0 0 0 0 1 2 2 1 1 1 1 1 0 0 1 2 3 4 4 3 3 2 2 2 4 6 6 4 4 5 4 3 3 3 3 1 1 0 0 0 0 0 0 0
0 0 0 0 1 1 1 0 0 0 0 0 0 0 1 2 4 5 4 3 1 1 0 0 2 3 4 3 3 4 3 3 3 3 3 1 0 0 0 0 0 0 0 0
0 0 0 0 0 0 0 0 0 0 0 0 0 0 1 2 3 3 2 1 0 0 0 0 1 2 3 3 3 3 3 3 3 3 2 1 0 0 0 0 0 0 0 0
0 0 0 0 0 0 0 0 0 0 0 0 0 0 0 1 2 2 1 0 0 0 0 0 0 1 2 3 3 3 3 3 2 1 1 1 0 0 0 0 0 0 0 0
0 0 0 0 0 0 0 0 0 0 0 0 0 0 0 0 1 1 1 1 1 1 0 0 0 1 1 2 2 2 2 1 1 0 0 0 0 0 0 0 0 0 0 0
0 0 0 0 0 0 0 0 0 0 0 0 0 0 0 0 0 0 1 2 2 1 1 0 0 0 0 1 1 1 1 0 0 0 0 0 0 0 0 0 0 0 0 0
0 0 0 0 0 0 0 0 0 0 0 0 0 0 0 0 0 0 1 2 2 1 0 0 0 0 0 0 0 0 0 0 0 0 0 0 0 0 0 0 0 0 0 0
0 0 0 0 0 0 0 0 0 0 0 0 0 0 0 0 0 0 1 2 2 0 0 0 0 0 0 0 0 0 0 0 0 0 0 0 0 0 0 0 0 0 0 0
0 0 0 0 0 0 0 0 0 0 0 0 0 0 0 0 0 1 2 2 1 0 0 0 0 0 0 0 0 0 0 0 0 0 0 0 0 0 0 0 0 0 0 0
Wind_Speed
3 4 2 2 3 2 2 6 7 7 6 7 5 5 6 6 7 7 6 5 6 7 7 7 6 6 7 7 7 8 8 7 7 6 5 5 4 4 4 4 5 4 4 4
3 3 3 3 4 2 1 2 3 5 4 4 3 3 4 6 7 7 5 4 5 6 7 7 7 7 7 7 7 8 8 7 6 6 5 5 4 4 4 3 3 3 4 4
2 4 4 3 3 2 1 1 4 4 5 3 5 5 4 5 7 7 6 5 5 6 6 6 6 7 7 7 7 7 7 6 5 5 5 5 5 4 4 4 4 3 3 3
0 3 3 7 3 3 5 3 2 2 3 5 6 4 3 4 4 4 4 5 5 4 4 4 5 6 6 6 7 7 6 6 5 5 5 4 4 4 4 3 3 3 3 3
3 1 4 4 3 1 4 2 3 4 5 5 4 6 4 2 3 3 3 3 4 5 5 5 4 5 6 5 5 6 6 5 5 5 5 4 4 4 3 3 3 3 3 3
3 3 4 5 5 3 5 2 3 4 5 4 5 4 2 2 1 2 3 2 3 4 4 4 4 5 6 5 5 5 5 5 4 4 5 5 5 3 2 3 3 3 2 2
4 3 5 6 5 4 4 4 2 2 3 4 3 5 5 2 2 3 3 3 3 4 3 2 3 5 5 4 5 4 4 4 3 4 4 5 4 3 3 3 3 3 2 1
3 3 6 4 4 3 4 3 1 1 2 2 2 3 3 3 3 4 4 3 3 3 2 1 2 5 4 3 4 3 4 4 3 3 4 3 4 3 3 4 4 3 2 1
5 5 4 1 2 3 2 1 0 0 1 3 3 3 2 3 3 3 3 2 2 3 2 1 1 3 4 3 3 3 4 4 3 3 3 3 4 4 3 3 3 3 3 2
1 2 2 2 3 3 2 1 0 1 1 2 3 3 2 2 2 2 2 1 2 3 1 0 1 2 3 3 3 4 4 3 3 3 2 2 2 3 3 3 3 3 3 3
1 3 5 4 5 5 4 3 3 2 1 2 4 3 3 2 1 1 1 1 1 2 2 1 1 1 2 3 4 4 3 3 3 3 3 3 2 1 2 3 4 4 4 4
4 4 2 5 5 5 4 3 2 1 1 1 3 3 2 1 1 1 1 1 1 1 1 1 1 1 2 3 4 4 3 3 2 2 2 2 3 1 3 1 2 3 4 4
4 2 2 4 5 4 3 3 1 0 1 1 1 2 3 2 1 1 1 1 1 1 1 1 1 1 2 2 3 4 4 3 2 2 2 3 3 3 1 2 1 1 2 4
1 0 2 4 3 3 3 3 1 1 1 1 2 2 2 1 1 1 1 1 1 1 1 1 0 1 2 2 3 3 3 3 3 3 3 3 3 3 3 2 1 1 1 2
3 2 3 3 3 3 2 1 1 1 2 1 0 1 2 2 2 1 1 1 0 1 0 1 0 2 1 2 3 3 2 2 2 2 2 3 3 3 2 3 2 1 0 1
3 2 1 2 3 2 1 1 0 1 1 1 1 1 1 2 2 1 1 1 2 1 0 0 1 2 1 2 2 1 1 2 3 2 2 2 2 3 2 2 3 2 1 1
3 3 2 3 3 2 2 2 2 1 0 1 1 0 1 1 1 1 1 1 1 1 0 0 1 1 1 2 2 1 1 1 2 2 2 2 2 3 3 2 3 2 2 2
4 5 4 4 2 2 1 1 0 1 1 0 0 1 1 1 0 0 1 1 2 2 1 0 0 1 1 1 2 2 2 1 1 2 2 2 2 2 2 2 3 3 2 2
0 0 1 1 1 2 2 1 1 0 0 0 1 1 1 1 1 1 1 2 2 1 2 1 1 2 2 1 2 1 1 1 1 1 1 2 2 2 2 3 2 2 3 3
2 2 2 2 2 2 1 1 1 1 1 1 2 2 2 1 1 2 3 2 0 1 1 1 2 2 1 1 2 2 2 2 2 1 1 1 2 2 2 2 3 3 3 3
3 3 3 3 2 1 1 1 2 1 1 3 3 3 2 1 1 3 3 2 2 1 1 2 2 1 1 1 3 2 3 3 2 2 2 2 2 2 2 2 3 3 3 3
3 3 3 3 3 3 2 2 3 3 3 3 3 3 2 2 3 3 3 1 0 1 2 2 2 2 3 3 3 3 3 3 3 2 2 2 2 2 2 3 3 3 3 3
3 3 3 2 3 3 4 4 4 4 4 3 3 3 3 2 2 3 2 1 1 3 3 2 3 4 4 3 3 3 3 3 3 3 3 3 3 3 3 3 3 3 3 3
3 3 2 3 5 5 4 3 4 4 3 3 3 3 4 4 3 2 2 2 4 4 3 3 5 5 5 3 3 3 3 3 4 3 3 4 4 3 3 3 3 3 3 3
2 3 4 5 4 3 2 3 4 5 5 4 4 4 3 3 3 2 3 4 5 5 4 4 5 4 4 3 4 4 4 4 4 3 3 3 3 3 3 3 3 2 2 1
2 3 3 3 3 2 2 2 3 2 3 3 3 3 3 3 3 3 3 4 5 5 4 3 3 3 3 4 4 4 4 4 4 4 3 3 3 3 2 2 3 2 1 1
3 3 3 3 2 2 2 3 3 2 3 3 3 2 3 3 3 4 4 4 4 3 3 3 3 3 4 4 4 4 3 3 3 3 3 3 3 3 3 3 2 1 1 1
Wind_Direction
227 243 248 273 283 273 175 182 179 205 198 214 202 174 160 149 136 127 136 145 155 160 168 165 161 164 172 178 171 167 164 172 183 186 183 178 177 180 182 186 191 190 192 199
335 316 326 313 288 263 213 181 172 161 207 223 169 111 109 120 125 127 139 157 166 166 163 165 168 168 169 172 168 163 168 179 182 179 178 177 180 180 177 185 187 182 191 195
294 310 9 308 270 172 115 104 149 180 215 160 115 111 133 138 134 140 148 160 169 171 167 171 173 169 172 169 163 160 167 172 175 176 177 180 180 173 178 187 184 186 195 188
117 27 231 248 268 114 110 69 64 126 138 135 135 136 104 94 115 131 147 159 164 164 166 169 168 163 160 157 157 161 166 170 169 171 178 179 174 180 186 183 181 184 187 183
120 178 273 294 324 50 114 42 25 108 115 116 127 87 44 38 101 139 155 157 158 156 156 159 155 150 139 138 145 152 165 172 173 173 172 172 178 184 181 169 167 167 167 165
139 165 225 251 302 319 93 28 351 100 126 134 106 105 248 280 101 94 104 114 122 126 122 127 148 146 138 148 155 169 178 177 172 172 173 177 181 178 173 166 170 160 159 172
166 198 257 277 305 40 106 227 274 122 147 149 153 184 199 168 97 90 87 91 108 110 114 138 142 134 143 156 176 186 173 160 162 179 179 179 177 170 162 159 154 153 160 185
150 184 249 314 35 103 204 245 253 125 147 133 139 134 132 122 104 87 72 68 88 104 106 108 128 131 141 174 188 168 155 158 172 183 184 172 164 167 162 156 157 165 161 173
178 207 239 296 148 183 172 159 333 99 173 131 133 130 121 118 113 105 98 93 97 111 100 59 153 156 162 190 170 154 149 159 170 178 179 165 160 165 166 165 172 180 177 190
20 288 317 8 36 18 26 68 115 112 113 128 136 137 119 113 111 100 100 104 96 93 107 165 175 176 176 172 160 148 150 157 158 156 154 148 147 158 165 173 181 187 187 197
320 304 343 353 4 354 342 13 34 41 84 129 131 134 130 130 138 132 115 129 116 129 165 197 188 201 187 167 150 146 155 159 155 156 156 148 138 158 178 192 189 189 199 195
233 238 237 285 313 338 343 348 24 39 13 78 141 146 142 153 180 150 129 115 107 110 143 185 169 221 207 181 165 156 158 159 162 160 157 154 142 86 32 104 165 170 183 186
225 248 242 287 318 338 340 330 337 343 189 163 170 156 159 164 169 155 141 141 169 192 217 211 178 265 241 191 169 161 170 173 170 165 164 166 163 157 149 3 33 159 178 181
233 310 301 306 299 319 330 327 350 355 303 196 187 159 142 123 107 113 211 228 216 198 196 167 142 286 266 174 153 161 167 173 170 172 170 171 173 174 174 173 181 320 301 197
257 213 230 280 304 308 310 349 20 345 327 317 107 128 130 127 124 156 265 273 112 93 122 126 109 287 259 150 148 160 164 167 169 175 174 175 174 170 174 175 169 193 315 341
250 266 292 307 290 290 314 10 22 295 319 17 26 21 157 147 148 159 142 115 109 114 212 121 268 265 202 141 138 151 171 169 163 168 173 170 169 166 173 178 170 176 196 201
224 243 249 270 272 263 255 230 200 213 290 50 19 27 108 103 85 69 35 45 116 170 175 184 256 298 110 135 140 146 139 139 153 164 177 176 172 174 180 181 182 190 205 187
214 221 215 210 223 244 257 233 112 71 57 9 41 62 74 90 82 211 206 101 72 39 360 323 58 61 81 106 124 128 125 142 177 181 174 170 171 173 170 169 171 174 167 150
139 157 212 194 184 167 171 186 169 174 190 94 130 174 175 190 210 190 105 94 94 61 320 344 44 74 81 80 93 120 121 127 139 137 139 147 149 150 154 153 155 158 151 145
50 55 55 71 92 112 118 121 115 113 118 116 116 107 101 119 127 101 90 87 140 223 236 61 68 69 67 80 74 89 93 98 103 100 106 120 124 125 127 131 133 132 127 123
69 68 71 73 75 88 108 122 115 103 98 106 110 116 110 89 94 97 97 73 340 18 66 76 68 66 73 77 73 83 83 80 78 82 89 100 106 110 112 117 119 121 120 117
58 67 72 79 78 67 58 78 103 104 94 92 97 105 98 85 83 77 76 107 91 64 70 64 61 68 75 80 76 78 76 72 72 75 84 92 101 103 108 111 108 105 107 110
64 64 69 82 96 93 71 68 78 90 94 101 109 106 101 97 95 100 79 14 55 71 71 60 63 66 69 68 70 78 76 75 78 80 85 86 86 90 94 101 100 101 103 100
69 63 68 85 91 84 74 65 72 73 75 85 90 99 104 92 70 73 100 85 77 78 72 61 61 60 62 60 65 72 72 76 80 79 78 80 79 77 82 89 91 86 89 93
98 92 88 92 92 93 92 77 68 69 68 64 63 63 72 91 98 88 80 77 80 85 70 56 57 61 65 65 71 76 76 78 82 82 80 84 85 87 88 91 94 98 97 95
110 106 102 105 111 111 102 89 80 76 81 75 59 52 59 70 82 83 78 75 74 80 75 61 58 64 70 72 73 77 79 78 77 80 82 84 85 87 85 84 85 89 89 85
94 93 90 89 88 97 98 95 93 89 93 95 81 61 65 71 77 79 80 79 77 77 75 70 67 71 72 74 78 80 77 74 75 76 78 79 78 78 78 80 79 71 64 70